User: anonymous
Location: Unspecified
(0.0000°N, 0.0000°E)
Time: 20:58:09
(UTC+02:00)
Language:

ARIANE 5 R/B - Orbit

View from above orbital plane
View from above orbital plane
View from above satellite
View from above satellite

Ground track
Ground track

The orbit data is extracted from the following two-line orbital elements,

1 28379U 04027B   14103.97146001 -.00000275  00000-0  21849-3 0  6189
2 28379 007.2652 000.9479 7293612 020.8215 265.2871 02.07923621 73991
Epoch (UTC): 13 April 2014 23:18:54
Eccentricity: 0.7293612
inclination: 7.2652°
perigee height: 639 km
apogee height: 38463 km
right ascension of ascending node: 0.9479°
argument of perigee: 20.8215°
revolutions per day: 2.07923621
mean anomaly at epoch: 265.2871°
orbit number at epoch: 7399

The dashed part of the orbit path shows where the satellite is in the earth's shadow,  

DLR